Concordia, KS

5:10 AM CST on December 15, 2017 (GMT -0600)
Blosser Municipal

Weather History for KCNK - January, 2012

Change the Weather History Date:

Saturday, January 28, 2012

  Actual Average Record
Temperature  
Mean Temperature 34 °F 29 °F  
Max Temperature 49 °F 39 °F 71 °F (2008)
Min Temperature 19 °F 19 °F -9 °F (1915)
Degree Days  
Heating Degree Days 31 36  
Month to date heating degree days 894 1022  
Since 1 July heating degree days 2863 3199  
Cooling Degree Days 0 0  
Month to date cooling degree days 0 0  
Year to date cooling degree days 0 0  
Moisture  
Dew Point 12 °F    
Average Humidity 51    
Maximum Humidity 84    
Minimum Humidity 18    
Precipitation  
Precipitation 0.00 in 0.02 in 1.06 in (1891)
Month to date precipitation 0.32 0.50  
Year to date precipitation 0.32 0.50  
Snow  
Snow 0.00 in 0.20 in 1.50 in (2001)
Month to date snowfall 3.1 5.1  
Year to date snowfall 3.1 5.1  
Since 1 July snowfall 4.0 11.6  
Snow Depth 0.00 in    
Sea Level Pressure  
Sea Level Pressure 30.31 in    
Wind  
Wind Speed 12 mph (West)    
Max Wind Speed 30 mph    
Max Gust Speed 39 mph    
Visibility 10 miles    
Events      
T = Trace of Precipitation, MM = Missing Value Source: NWS Daily Summary

Daily Weather History Graph

Daily Weather History Graph

Search for Another Location

Airport or City:

Trip Planner

Search our weather history database for the weather conditions in past years. The results will help you decide how hot, cold, wet, or windy it might be!

Date:

Astronomy

Jan. 28, 2012 Rise Set
Actual Time 7:41 AM CST 5:45 PM CST
Civil Twilight 7:13 AM CST 6:14 PM CST
Nautical Twilight 6:40 AM CST 6:46 PM CST
Astronomical Twilight 6:09 AM CST 7:18 PM CST
Moon 10:06 AM CST (1/28) 11:33 PM CST (1/28)
Length of Visible Light 11h 00m
Length of Day
10h 03m
Waxing Crescent, 28% of the Moon is Illuminated
Jan 28
Waxing Crescent
Jan 30
First Quarter
Feb 7
Full
Feb 14
Last Quarter
Feb 21
New

Hourly Weather History & Observations

Time (CST) Temp. Windchill Dew Point Humidity Pressure Visibility Wind Dir Wind Speed Gust Speed Precip Events Conditions
12:55 AM 26.1 °F 16.8 °F 17.1 °F 69% 30.32 in 10.0 mi West 9.2 mph - N/A   Clear
1:55 AM 26.1 °F 16.8 °F 18.0 °F 71% 30.34 in 10.0 mi WSW 9.2 mph - N/A   Clear
2:55 AM 25.0 °F 14.8 °F 18.0 °F 75% 30.34 in 10.0 mi WSW 10.4 mph - N/A   Clear
3:55 AM 24.1 °F 14.4 °F 17.1 °F 75% 30.34 in 10.0 mi West 9.2 mph - N/A   Clear
4:55 AM 24.1 °F 15.2 °F 17.1 °F 75% 30.31 in 10.0 mi West 8.1 mph - N/A   Clear
5:55 AM 21.2 °F 10.9 °F 17.6 °F 86% 30.30 in 10.0 mi WSW 9.2 mph - N/A   Clear
6:55 AM 19.9 °F 7.9 °F 16.0 °F 85% 30.35 in 10.0 mi West 11.5 mph - N/A   Clear
7:55 AM 19.9 °F 7.9 °F 15.1 °F 81% 30.35 in 10.0 mi West 11.5 mph - N/A   Clear
8:55 AM 23.0 °F 10.6 °F 15.1 °F 72% 30.38 in 10.0 mi West 13.8 mph - N/A   Clear
9:55 AM 28.9 °F 18.6 °F 16.0 °F 58% 30.40 in 10.0 mi West 12.7 mph - N/A   Clear
10:55 AM 35.1 °F 25.5 °F 16.0 °F 46% 30.39 in 10.0 mi West 15.0 mph - N/A   Clear
11:55 AM 39.9 °F 30.0 °F 14.0 °F 35% 30.36 in 10.0 mi West 21.9 mph 31.1 mph N/A   Clear
12:55 PM 45.0 °F 36.2 °F 12.0 °F 26% 30.32 in 10.0 mi West 24.2 mph 38.0 mph N/A   Clear
1:55 PM 48.9 °F - 9.0 °F 20% 30.29 in 10.0 mi West 24.2 mph 34.5 mph N/A   Clear
2:55 PM 48.0 °F - 6.1 °F 18% 30.27 in 10.0 mi WNW 21.9 mph 32.2 mph N/A   Clear
3:55 PM 46.9 °F - 7.0 °F 20% 30.27 in 10.0 mi WNW 15.0 mph 31.1 mph N/A   Clear
4:55 PM 44.6 °F 38.8 °F 6.8 °F 21% 30.24 in 10.0 mi WNW 11.5 mph 20.7 mph N/A   Clear
5:55 PM 37.9 °F 32.7 °F 7.0 °F 28% 30.28 in 10.0 mi West 6.9 mph - N/A   Clear
6:55 PM 34.0 °F 28.0 °F 7.0 °F 32% 30.29 in 10.0 mi West 6.9 mph - N/A   Clear
7:55 PM 33.1 °F 26.1 °F 8.1 °F 35% 30.28 in 10.0 mi WSW 8.1 mph - N/A   Clear
8:55 PM 36.0 °F 29.6 °F 8.1 °F 31% 30.27 in 10.0 mi WSW 8.1 mph - N/A   Clear
9:55 PM 34.0 °F 26.6 °F 8.1 °F 34% 30.27 in 10.0 mi WSW 9.2 mph - N/A   Scattered Clouds
10:55 PM 34.0 °F 27.2 °F 8.1 °F 34% 30.27 in 10.0 mi WSW 8.1 mph - N/A   Overcast
11:55 PM 33.8 °F 27.0 °F 8.6 °F 35% 30.23 in 10.0 mi WSW 8.1 mph - N/A   Mostly Cloudy